TimeAKDT,TemperatureF,Dew PointF,Humidity,Sea Level PressureIn,VisibilityMPH,Wind Direction,Wind SpeedMPH,Gust SpeedMPH,PrecipitationIn,Events,Conditions,WindDirDegrees,DateUTC
12:53 AM,41.0,35.1,79,29.73,10.0,ESE,16.1,-,0.01,,Overcast,120,2012-10-31 08:53:00
1:53 AM,41.0,35.1,79,29.71,10.0,ESE,10.4,-,0.00,,Overcast,120,2012-10-31 09:53:00
2:53 AM,41.0,34.0,76,29.69,10.0,ESE,17.3,23.0,N/A,,Overcast,110,2012-10-31 10:53:00
3:53 AM,41.0,35.1,79,29.68,10.0,ESE,12.7,-,0.01,,Overcast,110,2012-10-31 11:53:00
4:53 AM,41.0,35.1,79,29.68,10.0,SE,15.0,-,0.00,Rain,Light Rain,130,2012-10-31 12:53:00
5:53 AM,41.0,36.0,82,29.67,7.0,SE,11.5,-,0.00,Rain,Light Rain,130,2012-10-31 13:53:00
6:53 AM,41.0,37.0,86,29.67,7.0,SE,11.5,-,0.00,Rain,Light Rain,130,2012-10-31 14:53:00
7:53 AM,39.9,37.9,93,29.66,5.0,SE,10.4,-,0.03,Rain,Light Rain,140,2012-10-31 15:53:00
8:53 AM,39.9,37.9,93,29.67,6.0,SE,5.8,-,0.02,Rain,Light Rain,140,2012-10-31 16:53:00
9:51 AM,39.2,37.4,93,29.67,3.0,East,8.1,-,0.01,Rain,Light Rain,100,2012-10-31 17:51:00
9:53 AM,39.9,37.9,93,29.67,3.0,East,6.9,-,0.01,Rain,Light Rain,100,2012-10-31 17:53:00
10:20 AM,39.2,39.2,100,29.67,2.5,East,3.5,-,0.01,Rain,Light Rain,100,2012-10-31 18:20:00
10:44 AM,39.2,37.4,93,29.67,3.0,East,6.9,-,0.05,Rain,Light Rain,80,2012-10-31 18:44:00
10:53 AM,39.0,39.0,100,29.67,4.0,Variable,4.6,-,0.06,Rain,Light Rain,0,2012-10-31 18:53:00
11:53 AM,39.9,39.0,97,29.68,8.0,SE,9.2,-,0.06,Rain,Light Rain,130,2012-10-31 19:53:00
11:57 AM,39.2,37.4,93,29.67,8.0,East,8.1,-,N/A,,Overcast,100,2012-10-31 19:57:00
12:53 PM,39.9,37.9,93,29.67,10.0,East,8.1,-,0.00,,Overcast,90,2012-10-31 20:53:00
1:53 PM,42.1,37.0,82,29.66,10.0,ESE,9.2,-,0.01,,Overcast,120,2012-10-31 21:53:00
2:29 PM,41.0,37.4,87,29.66,8.0,ESE,5.8,-,0.00,Rain,Light Rain,110,2012-10-31 22:29:00
2:53 PM,41.0,37.9,89,29.67,10.0,ESE,8.1,-,0.00,,Overcast,120,2012-10-31 22:53:00
3:06 PM,42.8,37.4,81,29.66,10.0,SSE,9.2,-,0.00,Rain,Light Rain,160,2012-10-31 23:06:00
3:43 PM,41.0,37.4,87,29.66,7.0,ESE,6.9,-,0.01,Rain,Light Rain,110,2012-10-31 23:43:00
3:53 PM,42.1,37.0,82,29.66,10.0,SE,9.2,-,0.01,Rain,Light Rain,140,2012-10-31 23:53:00
4:53 PM,41.0,37.9,89,29.67,10.0,SE,8.1,-,0.02,Rain,Light Rain,130,2012-11-01 00:53:00
5:21 PM,41.0,37.4,87,29.67,8.0,SE,9.2,-,0.01,Rain,Light Rain,130,2012-11-01 01:21:00
5:53 PM,42.1,35.1,76,29.67,10.0,ESE,6.9,-,0.01,,Mostly Cloudy,120,2012-11-01 01:53:00
6:53 PM,39.0,36.0,89,29.68,10.0,East,8.1,-,N/A,,Overcast,80,2012-11-01 02:53:00
7:53 PM,37.9,36.0,93,29.68,10.0,East,5.8,-,N/A,,Overcast,100,2012-11-01 03:53:00
8:53 PM,39.0,36.0,89,29.68,10.0,East,5.8,-,N/A,,Overcast,100,2012-11-01 04:53:00
9:53 PM,37.9,35.1,89,29.69,10.0,East,4.6,-,N/A,,Overcast,100,2012-11-01 05:53:00
10:53 PM,39.9,35.1,83,29.70,10.0,Calm,Calm,-,N/A,,Overcast,0,2012-11-01 06:53:00
11:53 PM,39.9,37.0,89,29.72,10.0,North,4.6,-,0.00,,Overcast,360,2012-11-01 07:53:00